Lid_Strength_Index
3 3 3 2 3 4 5 8 16 9 8 15 17 19 16 11 13 12 13 11 12 14 14 15 14 15 15 14 15 18 17 18 22 21 19 17 17 18 19 23 23 23 22 20
4 4 3 3 3 4 6 11 12 9 10 19 19 18 14 12 14 14 13 13 12 13 13 15 15 15 14 14 15 17 17 20 24 21 19 18 20 18 18 20 20 24 23 19
5 4 4 4 3 3 6 11 16 13 13 16 17 19 17 16 13 13 12 13 13 13 16 14 16 16 14 14 15 13 14 20 20 20 18 19 22 20 18 20 26 22 20 18
6 5 5 3 4 3 7 11 15 15 18 19 16 14 15 15 16 14 13 15 14 13 17 17 17 16 15 14 13 15 17 21 23 22 19 19 19 20 21 21 20 21 18 19
6 6 6 5 4 3 6 13 14 13 18 14 14 14 16 15 15 15 15 14 13 12 14 12 15 15 16 15 15 17 16 18 20 22 21 20 21 19 20 19 22 21 19 18
5 6 6 6 5 4 7 9 9 10 13 15 15 15 16 14 12 13 13 12 12 12 11 12 13 12 12 13 15 17 17 17 18 19 23 21 20 19 19 20 19 19 20 15
5 5 6 6 6 6 6 8 8 10 14 14 15 13 12 12 12 13 13 12 12 13 11 10 10 12 14 14 15 14 17 17 17 19 21 20 16 16 17 18 17 17 17 15
4 5 5 6 6 6 7 6 7 9 14 12 13 13 12 11 11 13 14 13 12 10 10 13 14 15 14 16 17 16 15 16 18 19 24 18 15 17 18 18 15 15 16 15
2 4 5 6 6 6 7 5 5 7 12 13 10 12 11 13 13 15 15 12 11 12 14 14 16 17 15 18 18 17 17 16 15 18 20 20 15 16 15 16 17 14 15 15
2 3 5 6 6 5 7 7 4 6 11 10 9 12 12 10 12 14 15 15 14 13 15 15 15 16 16 19 19 20 19 19 19 18 18 17 14 16 16 18 14 16 16 15
2 3 3 6 6 6 7 7 5 6 10 10 9 8 10 10 11 15 15 14 15 15 14 14 15 15 16 20 19 20 19 19 20 18 19 20 15 17 16 13 16 16 16 17
2 2 3 4 5 5 6 8 4 5 8 10 8 8 8 7 7 12 13 12 15 12 14 15 15 15 17 19 20 18 18 16 19 17 17 14 15 13 14 14 15 15 16 16
2 2 3 4 4 5 6 7 7 7 12 11 10 10 7 7 7 8 13 13 11 12 10 13 14 14 16 17 18 19 18 16 18 17 15 15 14 13 14 14 14 14 15 15
1 2 3 4 4 4 4 7 6 7 10 13 12 8 9 7 6 7 7 9 9 10 10 13 14 14 15 18 16 16 17 16 19 19 16 15 14 14 13 13 13 14 15 14
0 2 3 3 4 4 4 6 5 5 7 12 13 11 9 8 7 8 8 9 10 12 13 14 14 14 14 17 18 20 17 17 16 17 14 12 11 12 13 13 13 13 14 15
0 1 2 3 3 3 6 12 5 4 4 11 15 12 12 9 7 8 8 8 10 12 13 13 13 13 13 14 15 14 15 15 13 13 13 13 15 15 15 14 14 14 14 14
-1 1 2 2 3 7 9 12 6 3 5 10 11 12 12 12 11 12 12 11 13 12 13 14 13 13 12 14 14 13 13 12 13 14 14 14 16 14 17 17 17 18 18 18
-0 -0 1 3 3 5 10 7 3 3 6 9 11 13 11 10 12 12 12 13 12 13 13 14 13 13 13 14 13 11 11 13 14 13 14 13 16 18 19 21 21 19 18 19
-0 -0 1 6 9 15 12 4 3 4 7 9 10 13 14 9 10 11 11 11 14 12 13 13 12 14 15 13 12 13 12 14 14 17 18 18 18 18 20 21 21 18 17 18
0 5 11 12 11 4 3 6 9 8 8 8 10 12 12 10 10 10 10 10 11 14 12 12 13 13 14 17 18 18 19 20 21 19 20 20 22 21 21 22 24 20 21 22
9 12 16 6 2 6 8 11 12 15 12 9 14 9 11 9 10 10 9 11 11 14 13 12 13 15 15 20 21 21 21 21 22 19 19 20 20 21 23 24 24 25 25 25
7 7 4 5 8 9 12 16 14 12 15 10 10 10 9 9 8 10 10 11 10 14 10 12 15 17 23 23 25 25 25 24 24 23 22 22 23 24 26 26 25 27 27 26
8 11 15 15 18 16 17 17 14 19 13 10 10 10 9 9 9 9 10 12 13 9 12 13 16 26 26 26 27 28 28 28 27 27 26 24 25 25 25 25 25 26 27 26
15 18 20 19 22 19 12 16 12 11 14 15 11 9 9 9 9 9 14 13 10 14 15 18 22 28 29 30 30 28 30 29 29 28 26 26 25 26 27 27 27 26 26 26
17 17 21 21 18 18 15 15 15 10 9 8 8 9 8 10 12 10 11 13 14 14 18 24 27 31 31 30 29 28 28 30 30 30 27 27 27 27 27 27 27 27 26 26
16 17 16 22 18 17 16 16 14 9 8 7 9 11 11 11 11 13 14 15 21 19 28 29 30 32 31 31 29 28 27 27 27 29 30 30 29 28 29 29 28 27 27 26
14 14 22 20 20 16 15 14 12 10 10 10 12 13 13 15 15 16 20 21 25 29 28 24 26 28 29 30 30 30 28 27 27 27 27 30 30 29 28 27 28 28 26 26